Location: Unspecified
(0.0000°N, 0.0000°E)
Time: 00:54:18
(UTC+00:00)

RS-15 - Pass Details

Date: 16 February 2026
Orbit: 1894 x 2150 km, 64.8° (Epoch: 7 March)

Event Time Altitude Azimuth Distance (km) Brightness Sun altitude
Rises 22:21:16 0° 189° (S) 5,407 10.6 -59.5°
Reaches altitude 10° 22:24:49 10° 183° (S) 4,375 10.0 -60.3°
Enters shadow 22:25:22 12° 182° (S) 4,224 9.9 -60.5°
